QPF
0.00 0.00 0.00 0.00 0.02 0.00 0.00 0.00 0.00 0.00 0.00 0.00 0.00 0.00 0.00 0.00 0.00 0.00 0.00 0.00 0.00 0.00 0.00 0.00 0.00 0.00 0.00 0.00 0.02 0.02 0.05 0.04 0.03 0.03 0.02 0.03 0.04 0.03 0.00 0.00 0.01 0.00 0.00 0.02 0.10 0.08 0.08 0.06 0.02
0.00 0.00 0.00 0.00 0.01 0.02 0.00 0.00 0.00 0.00 0.00 0.00 0.00 0.00 0.00 0.00 0.00 0.00 0.00 0.00 0.00 0.00 0.00 0.00 0.00 0.00 0.00 0.00 0.03 0.06 0.07 0.06 0.02 0.01 0.03 0.04 0.04 0.06 0.01 0.00 0.00 0.00 0.00 0.02 0.14 0.08 0.03 0.04 0.06
0.00 0.00 0.00 0.00 0.02 0.01 0.01 0.00 0.00 0.00 0.00 0.00 0.00 0.00 0.00 0.00 0.00 0.00 0.00 0.00 0.00 0.00 0.00 0.00 0.00 0.00 0.00 0.01 0.05 0.05 0.06 0.06 0.04 0.03 0.02 0.03 0.04 0.02 0.00 0.00 0.00 0.02 0.00 0.01 0.12 0.11 0.05 0.00 0.00
0.00 0.00 0.00 0.02 0.02 0.00 0.00 0.00 0.00 0.00 0.00 0.00 0.00 0.00 0.00 0.00 0.00 0.00 0.00 0.00 0.00 0.00 0.00 0.00 0.00 0.00 0.00 0.00 0.03 0.05 0.04 0.02 0.02 0.03 0.01 0.01 0.02 0.00 0.00 0.00 0.00 0.03 0.00 0.00 0.02 0.15 0.06 0.01 0.00
0.00 0.00 0.00 0.00 0.00 0.00 0.00 0.00 0.00 0.00 0.00 0.00 0.00 0.00 0.00 0.00 0.00 0.00 0.00 0.00 0.00 0.00 0.00 0.01 0.00 0.00 0.00 0.00 0.01 0.01 0.02 0.01 0.01 0.03 0.01 0.00 0.00 0.00 0.01 0.04 0.00 0.00 0.00 0.01 0.05 0.08 0.01 0.01 0.00
0.00 0.00 0.04 0.01 0.00 0.00 0.00 0.00 0.00 0.00 0.00 0.00 0.00 0.00 0.00 0.00 0.00 0.00 0.00 0.00 0.00 0.00 0.00 0.02 0.00 0.00 0.00 0.00 0.00 0.00 0.00 0.00 0.00 0.01 0.00 0.00 0.00 0.00 0.00 0.04 0.07 0.04 0.01 0.04 0.14 0.11 0.00 0.00 0.00
0.00 0.00 0.02 0.00 0.00 0.00 0.00 0.00 0.00 0.00 0.00 0.00 0.00 0.00 0.00 0.00 0.00 0.00 0.00 0.00 0.00 0.00 0.00 0.02 0.06 0.00 0.00 0.01 0.03 0.06 0.06 0.07 0.05 0.03 0.02 0.03 0.01 0.03 0.03 0.02 0.06 0.06 0.08 0.12 0.13 0.09 0.01 0.00 0.00
0.00 0.00 0.00 0.00 0.01 0.00 0.00 0.00 0.00 0.00 0.00 0.00 0.00 0.01 0.00 0.00 0.00 0.00 0.00 0.01 0.00 0.00 0.00 0.00 0.04 0.00 0.00 0.00 0.03 0.08 0.09 0.14 0.14 0.14 0.06 0.02 0.02 0.08 0.07 0.04 0.04 0.08 0.12 0.13 0.12 0.08 0.01 0.00 0.01
0.00 0.00 0.00 0.00 0.00 0.00 0.00 0.00 0.00 0.00 0.00 0.00 0.00 0.00 0.00 0.00 0.00 0.00 0.00 0.00 0.01 0.02 0.00 0.01 0.03 0.05 0.03 0.10 0.17 0.10 0.11 0.22 0.15 0.28 0.15 0.02 0.04 0.02 0.01 0.02 0.07 0.12 0.11 0.12 0.09 0.08 0.01 0.00 0.00
0.00 0.00 0.01 0.00 0.00 0.00 0.00 0.00 0.00 0.00 0.00 0.00 0.00 0.00 0.00 0.00 0.00 0.00 0.00 0.00 0.01 0.01 0.01 0.00 0.03 0.12 0.14 0.05 0.29 0.13 0.13 0.08 0.04 0.09 0.02 0.01 0.05 0.13 0.10 0.06 0.04 0.09 0.15 0.17 0.15 0.06 0.07 0.05 0.01
0.00 0.00 0.00 0.00 0.00 0.00 0.00 0.00 0.00 0.00 0.00 0.02 0.00 0.00 0.00 0.00 0.00 0.00 0.00 0.00 0.00 0.00 0.00 0.01 0.04 0.05 0.03 0.04 0.03 0.12 0.13 0.06 0.01 0.04 0.01 0.05 0.01 0.08 0.04 0.04 0.02 0.01 0.06 0.07 0.09 0.04 0.01 0.03 0.05
0.00 0.00 0.00 0.00 0.00 0.00 0.00 0.00 0.00 0.00 0.00 0.00 0.00 0.00 0.00 0.00 0.00 0.00 0.00 0.00 0.00 0.00 0.00 0.00 0.00 0.01 0.00 0.01 0.02 0.11 0.04 0.04 0.05 0.03 0.02 0.00 0.01 0.00 0.00 0.01 0.07 0.08 0.09 0.14 0.11 0.10 0.04 0.02 0.05
0.00 0.00 0.00 0.00 0.00 0.00 0.00 0.00 0.00 0.00 0.00 0.00 0.00 0.00 0.00 0.00 0.00 0.00 0.00 0.00 0.00 0.00 0.00 0.00 0.00 0.00 0.00 0.00 0.00 0.00 0.01 0.01 0.02 0.00 0.00 0.00 0.00 0.00 0.00 0.01 0.03 0.08 0.14 0.16 0.12 0.11 0.08 0.07 0.07
0.00 0.00 0.00 0.00 0.00 0.00 0.00 0.00 0.00 0.00 0.00 0.00 0.00 0.00 0.00 0.00 0.00 0.00 0.00 0.00 0.00 0.00 0.00 0.00 0.00 0.00 0.00 0.00 0.00 0.01 0.02 0.02 0.01 0.01 0.00 0.00 0.01 0.01 0.00 0.01 0.01 0.04 0.10 0.19 0.15 0.13 0.10 0.05 0.05
0.00 0.00 0.00 0.00 0.00 0.00 0.00 0.00 0.00 0.00 0.00 0.00 0.00 0.00 0.00 0.00 0.00 0.00 0.00 0.00 0.00 0.00 0.00 0.00 0.00 0.00 0.00 0.00 0.00 0.00 0.01 0.02 0.01 0.01 0.01 0.01 0.02 0.01 0.00 0.00 0.00 0.01 0.09 0.23 0.25 0.11 0.06 0.02 0.02
0.00 0.00 0.00 0.00 0.00 0.00 0.00 0.00 0.00 0.00 0.00 0.00 0.00 0.00 0.00 0.00 0.00 0.00 0.00 0.00 0.00 0.00 0.00 0.00 0.00 0.00 0.00 0.00 0.00 0.00 0.00 0.00 0.00 0.02 0.01 0.02 0.04 0.03 0.00 0.00 0.00 0.00 0.02 0.15 0.22 0.14 0.01 0.03 0.07
0.00 0.00 0.00 0.00 0.00 0.00 0.00 0.00 0.00 0.00 0.00 0.00 0.00 0.00 0.00 0.00 0.00 0.00 0.00 0.00 0.00 0.00 0.00 0.00 0.00 0.00 0.00 0.00 0.00 0.00 0.00 0.00 0.00 0.00 0.00 0.01 0.05 0.07 0.05 0.00 0.00 0.00 0.02 0.07 0.15 0.11 0.02 0.07 0.15
0.00 0.00 0.00 0.00 0.00 0.00 0.00 0.00 0.00 0.00 0.00 0.00 0.00 0.00 0.00 0.00 0.00 0.00 0.00 0.00 0.00 0.00 0.00 0.00 0.00 0.00 0.00 0.00 0.02 0.07 0.07 0.00 0.00 0.00 0.00 0.02 0.04 0.06 0.09 0.02 0.01 0.03 0.05 0.08 0.16 0.07 0.08 0.10 0.13
0.00 0.00 0.00 0.00 0.00 0.00 0.00 0.00 0.00 0.00 0.00 0.00 0.00 0.00 0.00 0.00 0.00 0.00 0.00 0.00 0.00 0.00 0.00 0.00 0.00 0.01 0.02 0.08 0.11 0.11 0.11 0.05 0.06 0.03 0.01 0.02 0.03 0.05 0.08 0.06 0.03 0.07 0.02 0.08 0.13 0.11 0.14 0.11 0.08
0.00 0.00 0.00 0.00 0.00 0.00 0.00 0.00 0.00 0.00 0.00 0.00 0.00 0.00 0.00 0.00 0.00 0.00 0.00 0.00 0.00 0.00 0.00 0.00 0.02 0.01 0.08 0.08 0.07 0.09 0.14 0.11 0.14 0.13 0.07 0.03 0.03 0.05 0.08 0.09 0.06 0.05 0.05 0.06 0.12 0.12 0.12 0.11 0.08
0.00 0.00 0.00 0.00 0.00 0.00 0.00 0.00 0.00 0.00 0.00 0.00 0.00 0.00 0.00 0.00 0.00 0.00 0.00 0.00 0.00 0.00 0.00 0.00 0.01 0.03 0.05 0.05 0.08 0.14 0.09 0.10 0.14 0.14 0.12 0.06 0.03 0.04 0.06 0.10 0.10 0.06 0.06 0.02 0.08 0.11 0.15 0.10 0.10
0.00 0.00 0.00 0.00 0.00 0.00 0.00 0.00 0.00 0.00 0.00 0.00 0.00 0.00 0.00 0.00 0.00 0.00 0.00 0.00 0.00 0.00 0.00 0.00 0.01 0.02 0.03 0.02 0.04 0.07 0.03 0.04 0.09 0.14 0.17 0.12 0.08 0.04 0.05 0.09 0.12 0.11 0.06 0.03 0.03 0.06 0.14 0.15 0.11
0.00 0.00 0.00 0.00 0.00 0.00 0.00 0.00 0.00 0.00 0.00 0.00 0.00 0.00 0.00 0.00 0.00 0.00 0.00 0.00 0.00 0.00 0.00 0.00 0.00 0.01 0.01 0.00 0.01 0.00 0.04 0.12 0.14 0.17 0.15 0.11 0.10 0.08 0.10 0.08 0.12 0.09 0.03 0.01 0.02 0.04 0.11 0.11 0.14
0.00 0.00 0.00 0.00 0.00 0.00 0.00 0.00 0.00 0.00 0.00 0.00 0.00 0.00 0.00 0.00 0.00 0.00 0.00 0.00 0.00 0.00 0.00 0.00 0.00 0.01 0.00 0.01 0.00 0.05 0.08 0.16 0.19 0.20 0.17 0.13 0.10 0.09 0.10 0.10 0.11 0.09 0.06 0.03 0.06 0.07 0.11 0.17 0.11
0.00 0.00 0.00 0.00 0.00 0.00 0.00 0.00 0.00 0.00 0.00 0.00 0.00 0.00 0.00 0.00 0.00 0.00 0.00 0.00 0.00 0.00 0.00 0.00 0.00 0.01 0.01 0.00 0.01 0.02 0.07 0.06 0.05 0.12 0.14 0.11 0.06 0.09 0.10 0.09 0.09 0.09 0.08 0.08 0.10 0.13 0.18 0.18 0.15
0.00 0.00 0.00 0.00 0.00 0.00 0.00 0.00 0.00 0.00 0.00 0.00 0.00 0.00 0.00 0.00 0.00 0.00 0.01 0.00 0.00 0.00 0.00 0.00 0.00 0.00 0.01 0.01 0.00 0.02 0.04 0.01 0.04 0.14 0.07 0.04 0.05 0.08 0.10 0.11 0.10 0.12 0.12 0.09 0.05 0.09 0.10 0.07 0.08
0.00 0.00 0.00 0.00 0.00 0.00 0.00 0.00 0.00 0.00 0.00 0.00 0.00 0.00 0.00 0.00 0.00 0.00 0.00 0.00 0.00 0.00 0.00 0.00 0.00 0.00 0.01 0.00 0.00 0.00 0.00 0.00 0.02 0.11 0.16 0.15 0.17 0.15 0.17 0.12 0.12 0.14 0.12 0.10 0.02 0.00 0.00 0.02 0.02
0.00 0.00 0.00 0.00 0.00 0.00 0.00 0.00 0.00 0.00 0.00 0.00 0.00 0.00 0.00 0.00 0.00 0.00 0.00 0.00 0.00 0.00 0.00 0.00 0.00 0.00 0.00 0.00 0.01 0.02 0.01 0.01 0.08 0.08 0.14 0.13 0.13 0.12 0.16 0.13 0.12 0.10 0.09 0.05 0.00 0.01 0.00 0.00 0.00
0.00 0.00 0.00 0.00 0.00 0.00 0.00 0.00 0.02 0.00 0.00 0.00 0.00 0.00 0.00 0.00 0.00 0.02 0.01 0.00 0.00 0.00 0.00 0.00 0.00 0.00 0.00 0.01 0.01 0.01 0.00 0.01 0.05 0.06 0.03 0.05 0.06 0.08 0.11 0.11 0.10 0.09 0.04 0.02 0.01 0.04 0.04 0.01 0.00
0.00 0.00 0.00 0.00 0.00 0.00 0.00 0.00 0.00 0.00 0.00 0.00 0.00 0.00 0.00 0.00 0.00 0.03 0.01 0.00 0.00 0.00 0.00 0.00 0.00 0.00 0.00 0.01 0.01 0.00 0.00 0.00 0.00 0.02 0.00 0.00 0.01 0.04 0.04 0.04 0.03 0.02 0.02 0.00 0.02 0.03 0.03 0.01 0.01
MSLP
1008.49 1007.15 1006.07 1005.24 1004.23 1002.14 1000.59 1000.00 999.60 999.84 1000.27 1000.81 1001.56 1001.96 1002.48 1003.39 1003.56 1004.54 1006.03 1006.44 1006.62 1007.55 1008.99 1010.45 1011.23 1011.58 1011.81 1012.01 1012.18 1012.55 1013.07 1013.43 1013.82 1014.16 1014.54 1014.82 1014.99 1015.21 1015.51 1015.58 1015.68 1015.74 1015.87 1016.01 1016.31 1016.46 1016.46 1016.43 1016.52
1007.22 1006.39 1005.61 1004.01 1003.80 1002.41 1000.50 1000.43 999.95 1000.38 1001.03 1001.39 1001.53 1001.55 1002.60 1004.15 1005.07 1005.86 1006.55 1007.02 1006.72 1007.70 1008.79 1009.76 1011.35 1011.69 1012.05 1012.17 1012.49 1012.86 1013.12 1013.56 1013.83 1014.33 1014.65 1014.96 1015.22 1015.50 1015.56 1015.71 1015.79 1015.96 1015.94 1016.02 1016.30 1016.44 1016.54 1016.61 1016.66
1008.16 1006.74 1004.22 1001.91 1003.09 1001.65 1000.43 1000.01 1000.36 1001.09 1001.42 1001.36 1001.63 1002.71 1003.25 1004.64 1005.27 1005.75 1006.80 1007.43 1007.22 1007.65 1008.60 1009.82 1011.36 1011.90 1012.27 1012.59 1012.84 1013.09 1013.41 1013.72 1014.11 1014.45 1014.72 1015.14 1015.44 1015.53 1015.83 1015.90 1015.91 1016.11 1016.07 1016.19 1016.33 1016.40 1016.54 1016.60 1016.76
1006.00 1004.48 1003.92 1003.31 1001.98 1000.00 999.86 1000.03 1000.41 1000.91 1001.07 1001.63 1001.55 1002.60 1004.64 1005.40 1005.37 1005.72 1007.31 1007.61 1007.83 1007.77 1008.28 1010.55 1011.43 1012.01 1012.42 1012.87 1013.13 1013.37 1013.74 1013.91 1014.43 1014.60 1014.91 1015.28 1015.38 1015.70 1015.85 1016.09 1016.02 1016.27 1016.24 1016.27 1016.30 1016.57 1016.58 1016.69 1016.82
1005.49 1003.27 1001.34 1000.03 999.69 999.75 999.81 1000.06 1000.35 1000.34 1000.71 1001.43 1001.82 1002.62 1004.61 1005.94 1006.18 1006.68 1007.43 1007.76 1008.18 1008.02 1009.22 1010.57 1011.57 1012.15 1012.56 1013.08 1013.44 1013.80 1013.92 1014.22 1014.57 1014.86 1015.17 1015.36 1015.59 1015.80 1015.91 1016.21 1016.12 1016.18 1016.36 1016.38 1016.41 1016.64 1016.64 1016.76 1016.87
1003.75 1001.90 1001.63 1000.28 999.31 999.31 999.44 999.52 999.84 1000.09 1000.77 1001.80 1001.60 1001.55 1004.24 1006.03 1006.33 1006.85 1007.51 1007.71 1008.16 1008.34 1009.46 1010.64 1011.66 1012.17 1012.65 1013.09 1013.42 1013.77 1014.13 1014.49 1014.84 1015.08 1015.34 1015.50 1015.67 1015.87 1015.96 1016.16 1016.20 1016.27 1016.49 1016.48 1016.49 1016.59 1016.76 1016.85 1016.99
1003.49 1000.67 1000.09 999.28 998.75 998.87 999.66 999.79 999.20 999.62 1000.47 1000.89 1001.39 1000.54 1003.62 1005.43 1006.64 1007.22 1007.77 1007.95 1008.49 1008.73 1009.80 1010.58 1011.44 1012.18 1012.76 1013.25 1013.47 1013.88 1014.38 1014.58 1014.97 1015.30 1015.48 1015.53 1015.78 1015.87 1015.99 1016.18 1016.24 1016.36 1016.48 1016.57 1016.47 1016.61 1016.80 1016.92 1017.11
1003.17 1001.10 999.51 998.86 998.62 998.56 999.44 999.11 999.78 999.81 1000.17 1001.44 1001.22 1000.80 1002.90 1005.24 1006.85 1007.49 1008.51 1009.06 1009.40 1009.30 1010.27 1010.65 1011.41 1011.77 1012.29 1012.87 1013.58 1014.03 1014.29 1014.67 1014.98 1015.28 1015.23 1015.65 1015.62 1015.74 1015.97 1016.16 1016.17 1016.26 1016.47 1016.52 1016.49 1016.57 1016.77 1016.96 1017.15
1003.13 1000.61 998.81 998.27 998.81 998.52 998.78 998.95 999.76 1000.26 1000.05 1001.00 1001.50 1001.88 1002.96 1005.43 1006.74 1007.52 1008.47 1009.54 1009.88 1010.29 1010.22 1010.79 1011.21 1011.53 1011.90 1012.34 1013.20 1013.83 1014.25 1014.53 1014.75 1014.79 1015.18 1015.48 1015.10 1015.26 1015.39 1015.50 1015.89 1016.30 1016.36 1016.54 1016.45 1016.62 1016.72 1016.95 1017.12
1002.31 1000.10 998.61 999.54 999.58 999.35 999.29 999.58 999.55 999.53 999.55 1001.47 1002.44 1002.89 1004.14 1005.51 1006.61 1007.37 1008.33 1009.08 1009.72 1010.11 1010.19 1010.82 1011.39 1011.68 1012.13 1012.05 1013.19 1013.49 1014.08 1014.69 1015.02 1015.04 1014.40 1014.88 1014.84 1015.01 1015.15 1015.16 1015.62 1016.02 1016.35 1016.47 1016.58 1016.55 1016.67 1016.79 1016.26
1001.68 1000.04 999.53 999.69 1000.02 999.87 999.36 998.94 998.90 998.88 999.06 1000.24 999.63 1002.71 1004.17 1005.49 1006.37 1007.10 1007.66 1008.23 1009.06 1009.94 1010.65 1010.85 1011.38 1011.56 1012.01 1012.00 1012.40 1013.23 1013.91 1014.50 1015.09 1015.10 1014.92 1014.90 1015.44 1015.43 1014.88 1014.48 1014.90 1015.42 1016.10 1015.88 1016.27 1016.61 1016.23 1015.85 1016.29
1001.60 1000.73 1000.50 1000.03 999.99 999.77 999.24 999.00 999.00 998.99 998.94 1000.11 1000.70 1002.18 1003.92 1005.14 1006.04 1006.82 1007.48 1008.01 1008.50 1009.24 1009.70 1010.46 1010.98 1011.49 1011.40 1011.91 1011.78 1013.26 1013.18 1013.91 1014.42 1014.94 1014.86 1015.05 1015.32 1014.96 1015.13 1014.25 1014.42 1015.20 1015.48 1015.68 1015.75 1015.84 1015.65 1015.75 1016.22
1001.47 1000.66 1000.37 1000.15 999.77 999.56 999.67 999.21 998.93 999.45 999.55 1000.64 1001.12 1002.63 1003.85 1004.75 1005.73 1006.63 1007.32 1007.96 1008.54 1009.37 1009.97 1010.70 1011.39 1011.61 1011.66 1011.87 1011.33 1011.72 1012.08 1012.72 1013.65 1014.49 1014.61 1014.58 1014.85 1014.65 1014.74 1014.82 1014.50 1014.91 1015.31 1015.41 1015.70 1015.81 1015.84 1015.77 1016.19
1000.79 1000.91 1000.43 1000.17 999.64 999.43 999.62 998.96 998.84 999.62 1000.05 1001.00 1001.81 1002.82 1003.67 1004.44 1005.41 1006.35 1007.19 1007.87 1008.54 1009.28 1009.86 1010.51 1011.21 1011.63 1011.79 1011.92 1012.13 1012.16 1011.98 1011.97 1012.68 1013.59 1014.13 1014.67 1014.40 1014.61 1014.75 1014.94 1014.63 1014.53 1015.11 1015.51 1015.79 1015.81 1015.91 1015.89 1015.85
1001.29 1001.29 1000.53 999.53 999.04 999.53 999.35 998.67 1000.42 999.75 1000.30 1001.02 1001.95 1002.77 1003.40 1004.28 1005.16 1006.05 1006.92 1007.67 1008.38 1008.97 1009.56 1010.29 1011.12 1011.59 1011.92 1012.20 1012.30 1012.35 1011.97 1012.72 1012.92 1012.80 1013.06 1013.96 1014.27 1014.19 1014.46 1014.64 1014.81 1014.20 1014.80 1015.44 1015.70 1015.89 1016.06 1015.82 1015.56
1001.60 1000.84 999.52 998.24 999.25 999.06 999.51 999.62 999.90 999.96 1000.23 1001.04 1001.73 1002.47 1003.32 1004.21 1004.98 1005.82 1006.65 1007.46 1008.23 1008.65 1009.31 1009.99 1010.37 1011.17 1011.83 1012.16 1012.29 1012.18 1011.85 1011.81 1011.91 1012.40 1013.04 1013.35 1013.93 1014.00 1014.12 1014.19 1014.37 1014.28 1014.73 1015.26 1015.81 1016.03 1015.70 1015.76 1015.88
1000.20 999.27 998.16 998.30 999.47 999.26 999.44 998.76 999.52 999.94 1000.12 1000.68 1001.52 1002.24 1003.05 1003.99 1004.83 1005.59 1006.29 1007.13 1007.87 1008.64 1009.23 1009.89 1010.42 1011.09 1011.56 1011.88 1012.01 1012.11 1012.06 1012.13 1011.66 1011.58 1012.48 1012.88 1013.43 1013.63 1013.78 1013.60 1013.71 1014.24 1014.52 1015.09 1015.68 1015.92 1015.73 1015.29 1016.08
998.64 998.25 998.15 998.89 999.20 999.30 999.12 998.76 998.72 999.96 1000.04 1000.29 1000.95 1001.99 1002.71 1003.40 1004.44 1005.41 1006.09 1006.58 1007.41 1008.29 1009.13 1009.80 1010.30 1010.72 1011.23 1011.47 1011.84 1011.92 1012.11 1011.93 1011.50 1011.31 1011.81 1012.54 1013.10 1013.30 1013.66 1013.45 1013.19 1013.85 1014.33 1015.13 1015.54 1015.58 1015.50 1015.29 1015.95
999.37 999.23 998.76 998.97 999.56 999.88 999.11 998.92 998.65 999.21 999.85 999.87 1000.59 1001.30 1002.31 1002.94 1003.46 1004.49 1005.69 1006.42 1007.20 1008.20 1008.96 1009.66 1010.11 1010.52 1010.89 1011.39 1011.90 1011.99 1012.24 1011.67 1011.45 1011.61 1011.32 1011.76 1012.42 1012.90 1013.19 1013.62 1013.36 1013.81 1014.21 1014.87 1015.28 1015.31 1015.48 1015.78 1016.08
1000.14 999.97 999.59 999.41 999.59 999.98 999.34 998.72 998.26 998.57 999.13 999.34 999.85 1000.94 1001.68 1002.59 1003.29 1003.84 1004.99 1006.18 1007.01 1008.05 1008.99 1009.61 1009.94 1010.20 1010.68 1011.29 1011.57 1011.74 1012.16 1011.97 1012.01 1012.04 1012.17 1011.72 1012.01 1012.41 1012.82 1013.37 1013.39 1013.41 1014.03 1014.50 1015.10 1015.31 1015.56 1015.89 1016.13
1000.11 999.84 999.44 999.47 999.52 999.69 999.46 998.80 998.23 998.56 998.74 999.34 1000.00 1000.52 1001.11 1001.81 1002.56 1003.70 1005.02 1006.08 1007.01 1007.96 1008.63 1009.09 1009.68 1009.95 1010.56 1010.97 1011.37 1011.73 1011.91 1012.12 1012.04 1012.05 1011.79 1011.74 1011.54 1011.86 1012.39 1012.80 1013.25 1013.46 1014.01 1014.38 1014.88 1015.15 1015.50 1015.88 1015.98
999.68 999.77 1000.03 999.88 999.82 998.86 998.86 998.04 998.47 998.62 998.15 998.78 999.83 1000.58 1001.09 1001.80 1002.83 1003.51 1005.18 1006.32 1007.04 1007.61 1008.18 1008.67 1009.43 1009.73 1010.51 1011.01 1010.76 1011.24 1011.41 1011.61 1011.61 1011.61 1011.59 1011.50 1011.37 1011.48 1011.78 1012.34 1012.74 1013.29 1013.67 1014.19 1014.51 1014.84 1015.30 1015.70 1015.79
999.62 999.92 1000.35 1000.21 999.86 999.45 998.75 998.49 997.45 997.88 997.89 997.93 998.89 1000.22 1001.01 1001.81 1002.89 1004.08 1005.56 1006.45 1007.10 1007.45 1007.76 1008.58 1009.54 1010.23 1010.65 1010.97 1011.15 1011.45 1011.26 1011.35 1011.39 1011.32 1011.17 1011.03 1011.18 1011.19 1011.45 1011.86 1012.39 1012.94 1013.31 1013.62 1014.25 1014.68 1015.08 1015.42 1015.51
999.99 1000.47 1000.67 1000.51 999.89 998.98 998.58 998.06 997.17 997.57 998.72 998.47 999.52 1000.46 1001.37 1002.54 1003.39 1004.92 1006.36 1007.16 1007.30 1007.52 1008.01 1008.55 1009.54 1010.31 1010.61 1010.78 1010.93 1011.55 1011.43 1011.20 1010.95 1010.73 1010.75 1010.75 1011.03 1011.25 1011.33 1011.62 1012.10 1012.59 1012.93 1013.16 1013.72 1014.35 1014.70 1015.00 1015.23
999.96 1000.03 999.77 999.55 998.87 997.75 998.04 998.22 997.76 997.93 999.01 999.35 999.94 1000.90 1001.73 1003.01 1004.20 1005.91 1006.68 1007.14 1007.56 1007.79 1008.38 1008.84 1009.42 1010.20 1010.41 1010.73 1011.12 1011.36 1011.01 1010.81 1010.62 1010.14 1010.27 1010.56 1010.74 1010.97 1011.15 1011.46 1011.94 1012.32 1012.66 1013.00 1013.60 1013.98 1014.45 1014.78 1015.12
999.24 999.33 998.54 997.80 997.39 997.37 998.50 997.67 997.78 998.59 999.31 1000.25 1000.58 1000.91 1001.82 1002.87 1004.31 1006.06 1006.58 1007.04 1007.68 1008.13 1008.60 1008.94 1009.56 1010.18 1010.61 1010.82 1011.14 1011.29 1011.40 1011.00 1010.57 1010.43 1010.13 1010.29 1010.27 1010.79 1010.97 1011.39 1011.56 1011.91 1012.28 1012.81 1013.42 1013.97 1014.37 1014.80 1015.12
998.51 998.95 998.80 998.22 997.92 997.66 997.97 996.99 998.23 999.01 999.63 1000.29 1000.70 1001.16 1002.02 1002.68 1004.38 1005.75 1005.82 1006.96 1007.90 1008.24 1008.52 1008.76 1009.52 1010.07 1010.46 1010.70 1011.07 1011.28 1011.75 1011.47 1010.97 1010.84 1010.69 1010.59 1010.84 1010.96 1010.99 1011.14 1011.46 1011.88 1012.26 1012.71 1013.26 1013.77 1014.46 1014.79 1014.98
997.96 998.30 998.64 998.42 997.96 997.41 997.52 997.77 998.18 998.81 999.44 1000.25 1000.78 1001.34 1002.04 1002.86 1004.28 1005.38 1005.63 1006.95 1007.79 1008.25 1008.79 1009.15 1009.68 1010.23 1010.50 1010.54 1010.86 1011.12 1011.50 1011.71 1011.39 1011.20 1011.11 1011.07 1011.13 1011.18 1011.14 1011.32 1011.66 1011.95 1012.34 1012.80 1013.28 1013.85 1014.38 1014.66 1014.89
997.57 997.63 997.98 997.47 997.47 997.48 997.57 997.97 999.21 999.17 998.93 999.84 1000.75 1001.35 1002.17 1002.87 1004.07 1004.79 1005.83 1007.16 1007.93 1008.47 1008.96 1009.37 1009.57 1010.31 1010.62 1010.94 1010.77 1010.89 1011.42 1012.03 1011.73 1011.68 1011.68 1011.58 1011.61 1011.66 1011.70 1011.89 1011.98 1012.38 1012.78 1013.19 1013.42 1013.86 1014.25 1014.57 1014.87
996.69 997.12 997.58 997.21 997.63 997.96 998.79 999.35 998.94 999.05 999.54 999.71 1000.86 1001.55 1002.16 1002.75 1003.91 1005.42 1006.42 1006.86 1007.60 1007.93 1008.31 1008.87 1009.48 1010.17 1010.74 1010.93 1010.76 1010.83 1011.33 1011.90 1011.97 1011.79 1012.01 1011.78 1011.82 1011.96 1012.13 1012.26 1012.27 1012.54 1013.11 1013.76 1014.05 1014.33 1014.48 1014.85 1015.10
Thickness
5828 5840 5852 5841 5807 5822 5819 5831 5857 5839 5834 5850 5846 5832 5822 5820 5808 5787 5827 5828 5828 5820 5808 5796 5790 5787 5785 5784 5783 5780 5776 5773 5771 5768 5767 5764 5764 5762 5759 5758 5759 5759 5758 5760 5758 5759 5760 5762 5762
5840 5846 5846 5839 5794 5771 5818 5839 5835 5839 5843 5849 5847 5846 5826 5803 5820 5814 5813 5823 5827 5818 5808 5800 5788 5785 5781 5780 5778 5776 5773 5771 5769 5765 5764 5763 5762 5760 5759 5757 5757 5756 5757 5759 5759 5758 5760 5761 5762
5834 5843 5837 5840 5793 5791 5814 5845 5839 5842 5847 5844 5837 5840 5829 5808 5822 5820 5823 5819 5822 5817 5809 5799 5787 5781 5778 5775 5772 5770 5769 5768 5765 5762 5762 5760 5758 5760 5757 5756 5756 5754 5756 5758 5758 5759 5759 5761 5761
5843 5847 5841 5787 5793 5847 5845 5849 5848 5841 5844 5847 5848 5817 5824 5829 5824 5831 5822 5819 5815 5816 5812 5794 5785 5780 5776 5771 5769 5767 5765 5763 5761 5759 5757 5756 5756 5756 5756 5755 5756 5753 5754 5756 5758 5758 5759 5760 5760
5845 5847 5826 5838 5846 5852 5858 5858 5853 5845 5845 5839 5843 5821 5811 5820 5829 5826 5818 5816 5810 5813 5804 5793 5784 5779 5775 5769 5765 5762 5761 5759 5756 5754 5752 5753 5752 5753 5753 5753 5754 5754 5753 5755 5757 5758 5758 5759 5760
5831 5851 5790 5817 5838 5857 5862 5869 5860 5851 5846 5838 5839 5835 5816 5826 5822 5820 5818 5814 5812 5809 5799 5790 5783 5778 5773 5769 5765 5761 5757 5754 5751 5749 5748 5750 5751 5751 5752 5752 5753 5753 5752 5754 5756 5758 5757 5759 5759
5825 5841 5819 5840 5844 5849 5849 5866 5863 5858 5846 5841 5850 5827 5822 5821 5821 5818 5815 5814 5808 5806 5795 5788 5782 5776 5771 5766 5763 5758 5753 5752 5749 5747 5747 5748 5749 5750 5749 5750 5752 5751 5750 5752 5755 5756 5757 5758 5757
5838 5844 5841 5851 5842 5844 5858 5865 5864 5857 5844 5858 5859 5816 5813 5822 5820 5816 5807 5801 5798 5799 5790 5786 5779 5776 5771 5766 5759 5755 5751 5749 5748 5746 5750 5749 5750 5752 5750 5750 5750 5750 5751 5751 5754 5756 5757 5757 5757
5851 5831 5839 5846 5842 5851 5873 5861 5863 5866 5853 5850 5850 5845 5843 5829 5820 5809 5800 5791 5788 5786 5787 5782 5779 5775 5771 5768 5760 5754 5752 5750 5749 5750 5750 5750 5753 5754 5754 5753 5751 5749 5750 5750 5753 5755 5756 5756 5756
5835 5837 5829 5859 5855 5851 5862 5855 5857 5854 5852 5837 5834 5841 5836 5825 5813 5803 5793 5785 5782 5780 5781 5779 5775 5772 5766 5767 5758 5754 5751 5748 5747 5749 5754 5748 5747 5748 5753 5753 5753 5750 5748 5749 5751 5753 5754 5755 5761
5842 5836 5859 5859 5860 5861 5859 5864 5872 5858 5847 5807 5832 5830 5828 5818 5811 5803 5799 5794 5786 5781 5776 5775 5772 5769 5766 5768 5762 5756 5751 5747 5745 5745 5745 5745 5737 5740 5751 5756 5756 5752 5749 5752 5751 5750 5755 5760 5759
5829 5852 5854 5859 5863 5858 5856 5869 5860 5862 5861 5864 5860 5845 5831 5818 5811 5805 5798 5794 5790 5785 5781 5778 5773 5768 5768 5764 5763 5755 5754 5750 5747 5744 5744 5742 5739 5745 5746 5754 5756 5750 5751 5751 5752 5754 5759 5760 5758
5834 5848 5857 5862 5864 5863 5861 5854 5858 5852 5866 5863 5859 5844 5830 5823 5814 5810 5804 5798 5792 5781 5777 5773 5767 5764 5763 5761 5765 5762 5761 5756 5749 5744 5744 5743 5741 5742 5741 5742 5750 5749 5749 5751 5751 5753 5754 5759 5756
5853 5848 5851 5857 5860 5863 5849 5855 5862 5854 5863 5852 5847 5837 5832 5825 5817 5810 5803 5796 5789 5782 5776 5773 5766 5762 5759 5757 5755 5756 5759 5758 5753 5747 5743 5739 5739 5737 5738 5737 5742 5750 5747 5748 5748 5751 5752 5755 5758
5847 5827 5843 5854 5863 5852 5861 5841 5796 5856 5857 5846 5840 5836 5833 5826 5822 5811 5806 5797 5792 5785 5779 5771 5763 5758 5753 5751 5750 5749 5753 5748 5746 5747 5747 5740 5736 5737 5738 5736 5738 5747 5745 5742 5742 5746 5749 5753 5757
5825 5833 5821 5864 5856 5861 5852 5803 5832 5856 5850 5838 5838 5836 5829 5823 5820 5816 5809 5801 5795 5788 5778 5773 5768 5760 5753 5749 5747 5746 5748 5751 5750 5747 5741 5740 5736 5735 5734 5736 5737 5741 5741 5738 5739 5740 5750 5752 5753
5833 5818 5834 5845 5854 5851 5844 5835 5846 5856 5848 5838 5835 5833 5827 5820 5817 5815 5811 5804 5797 5787 5778 5770 5765 5757 5752 5748 5746 5743 5741 5741 5747 5748 5741 5738 5735 5735 5734 5737 5738 5737 5737 5737 5735 5738 5745 5751 5747
5830 5834 5843 5827 5842 5845 5836 5838 5854 5846 5845 5840 5836 5830 5825 5820 5814 5813 5809 5808 5800 5790 5780 5772 5766 5760 5754 5750 5744 5741 5737 5737 5739 5742 5739 5734 5731 5731 5731 5734 5738 5735 5736 5731 5731 5738 5743 5749 5746
5836 5829 5828 5836 5843 5829 5831 5833 5846 5848 5842 5841 5835 5830 5824 5821 5825 5820 5810 5805 5798 5789 5778 5770 5763 5759 5755 5745 5735 5731 5724 5731 5732 5730 5732 5732 5729 5728 5729 5728 5733 5732 5733 5730 5731 5734 5737 5738 5743
5822 5813 5815 5832 5838 5828 5827 5829 5849 5845 5840 5846 5841 5831 5826 5822 5820 5819 5811 5802 5794 5784 5775 5766 5762 5759 5752 5743 5736 5728 5719 5719 5718 5718 5717 5723 5724 5723 5724 5724 5728 5731 5727 5728 5728 5730 5729 5732 5736
5814 5811 5817 5815 5827 5832 5822 5814 5829 5830 5840 5842 5840 5838 5834 5826 5820 5815 5804 5797 5789 5779 5774 5768 5761 5757 5749 5742 5734 5721 5712 5706 5706 5707 5714 5718 5720 5719 5721 5722 5723 5724 5723 5723 5726 5728 5728 5725 5732
5801 5827 5819 5816 5809 5797 5831 5794 5815 5825 5835 5834 5831 5829 5829 5825 5821 5815 5798 5788 5783 5780 5777 5770 5761 5757 5748 5739 5732 5717 5709 5701 5702 5704 5709 5713 5715 5716 5718 5720 5720 5720 5721 5722 5725 5728 5728 5725 5725
5811 5824 5813 5811 5805 5805 5815 5802 5828 5834 5824 5832 5835 5829 5828 5824 5817 5805 5791 5783 5779 5779 5777 5769 5759 5750 5743 5736 5726 5712 5707 5704 5702 5703 5708 5712 5712 5714 5715 5717 5718 5718 5721 5724 5724 5726 5725 5727 5727
5825 5806 5803 5804 5802 5781 5806 5811 5819 5823 5809 5824 5828 5824 5821 5813 5809 5796 5779 5776 5776 5776 5773 5767 5756 5745 5740 5733 5723 5707 5703 5702 5703 5706 5707 5710 5711 5711 5714 5715 5717 5717 5720 5724 5725 5725 5726 5728 5728
5810 5792 5769 5765 5776 5783 5816 5803 5815 5833 5825 5824 5818 5816 5815 5808 5798 5779 5772 5772 5768 5769 5764 5759 5753 5741 5739 5730 5719 5709 5708 5708 5708 5712 5711 5709 5711 5712 5714 5715 5714 5716 5719 5722 5722 5725 5724 5726 5725
5797 5796 5784 5764 5780 5790 5807 5791 5808 5830 5828 5819 5819 5820 5814 5805 5794 5775 5770 5772 5765 5763 5759 5756 5747 5739 5734 5728 5719 5711 5706 5708 5710 5711 5714 5714 5715 5714 5716 5714 5716 5717 5720 5720 5721 5719 5720 5721 5721
5795 5779 5812 5794 5808 5796 5797 5829 5823 5822 5815 5812 5812 5813 5806 5805 5790 5777 5775 5769 5763 5760 5756 5754 5745 5738 5734 5729 5721 5711 5702 5704 5707 5708 5711 5713 5713 5713 5715 5716 5715 5715 5717 5718 5718 5718 5716 5718 5719
5809 5816 5777 5791 5761 5765 5795 5803 5806 5804 5804 5805 5805 5805 5805 5803 5790 5782 5781 5770 5763 5758 5753 5750 5744 5736 5732 5731 5724 5716 5706 5703 5706 5707 5708 5710 5711 5713 5715 5715 5714 5715 5715 5715 5715 5715 5715 5716 5717
5798 5793 5796 5812 5807 5779 5778 5799 5788 5783 5816 5806 5805 5807 5804 5801 5790 5784 5778 5768 5760 5754 5748 5743 5741 5733 5730 5727 5727 5721 5712 5701 5704 5703 5704 5707 5708 5709 5710 5710 5711 5711 5711 5711 5714 5714 5714 5712 5712
5818 5801 5799 5786 5780 5800 5783 5781 5816 5815 5817 5817 5806 5805 5806 5804 5795 5774 5771 5769 5761 5756 5750 5742 5738 5733 5729 5728 5727 5723 5717 5708 5703 5704 5704 5707 5707 5708 5707 5708 5710 5710 5707 5705 5705 5706 5706 5706 5706